Weather in Omelnyk

Ukraine / Zaporizhia Region     47°38′18″N   35°53′09″E
temp.,
°C
wind,
m/s
gust,
m/s
humid.,
%
clouds,
%
prec.,
mm/h
press.,
hPa
HPBL,
m
31 july, sat
sat3100:00+22wsw368375 0.8 1009121
03:00+21nnw367694 0.8 1009124
06:00+20n410870 0.0 1010258
09:00+25nne45660 0.0 1010561
12:00+29n44442 0.0 10111824
15:00+30n33385 0.0 10102165
18:00+30n333918 0.0 10102152
21:00+24ne22550 0.0 101114
1 august, sun
sun100:00+23nnw11540 0.0 101111
03:00+22ne33588 0.0 101222
06:00+21nne22622 0.0 101228
09:00+28ne33460 0.0 1012441
12:00+31nne32350 0.0 10122241
15:00+32nne323227 0.0 10112603
18:00+32ne22335 0.0 10112481
21:00+26wsw11465 0.0 101111
2 august, mon
mon200:00+24ne22500 0.0 101111
03:00+23ne11530 0.0 101111
06:00+22nnw22583 0.0 101212
09:00+29nnw22405 0.0 1012342
12:00+33wnw22290 0.0 10111987
15:00+34wsw23250 0.0 10102565
18:00+33w34310 0.0 1009710
21:00+27w22370 0.0 100911
3 august, tue
tue300:00+25sw35485 0.0 101064
03:00+24wnw33562 0.0 101038
06:00+22w226112 0.0 101023
09:00+27w355385 0.0 1011434
12:00+31wnw454187 0.0 10111653
15:00+32nw664491 0.0 10102231
18:00+27ssw665779 0.3 1011516
21:00+22sw457479 1.0 101396
4 august, wed
wed400:00+21nnw4865100 0.1 1014206
03:00+19n476737 0.1 1014134
06:00+18nne37735 0.0 1015138
09:00+24nne455316 0.0 1016612
12:00+27n3337100 0.0 10162104
15:00+29n443319 0.0 10162355
18:00+28n44350 0.0 10162267
21:00+22n35470 0.0 101761